Fort Sill, OK

1:03 AM CDT on July 24, 2017 (GMT -0500)
Post Army Air Field

Weather History for KFSI - January, 2013

Change the Weather History Date:

Sunday, January 20, 2013

  Actual Average Record
Temperature  
Mean Temperature 48 °F -  
Max Temperature 64 °F 52 °F 74 °F (1969)
Min Temperature 32 °F 25 °F 4 °F (1984)
Degree Days  
Heating Degree Days 17    
Moisture  
Dew Point 33 °F    
Average Humidity 61    
Maximum Humidity 85    
Minimum Humidity 35    
Precipitation  
Precipitation 0.00 in - - ()
Sea Level Pressure  
Sea Level Pressure 30.16 in    
Wind  
Wind Speed 7 mph (North)    
Max Wind Speed 15 mph    
Max Gust Speed -    
Visibility 10 miles    
Events      
Averages and records for this station are not official NWS values.
T = Trace of Precipitation, MM = Missing Value Source: NWS Daily Summary

Daily Weather History Graph

Daily Weather History Graph

Search for Another Location

Airport or City:

Trip Planner

Search our weather history database for the weather conditions in past years. The results will help you decide how hot, cold, wet, or windy it might be!

Date:

Astronomy

Jan. 20, 2013 Rise Set
Actual Time 7:38 AM CST 5:51 PM CST
Civil Twilight 7:11 AM CST 6:18 PM CST
Nautical Twilight 6:40 AM CST 6:49 PM CST
Astronomical Twilight 6:10 AM CST 7:19 PM CST
Moon 12:52 PM CST (1/20) 2:13 AM CST (1/20)
Length of Visible Light 11h 06m
Length of Day
10h 12m
Waxing Gibbous, 66% of the Moon is Illuminated
Jan 20
Waxing Gibbous
Jan 26
Full
Feb 3
Last Quarter
Feb 10
New
Feb 17
First Quarter

Hourly Weather History & Observations

Time (CST) Temp. Windchill Dew Point Humidity Pressure Visibility Wind Dir Wind Speed Gust Speed Precip Events Conditions
12:55 AM 35.6 °F 29.9 °F 31.6 °F 85% 30.21 in 10.0 mi North 6.9 mph - N/A   Clear
1:55 AM 34.9 °F 28.3 °F 30.7 °F 85% 30.21 in 10.0 mi North 8.1 mph - N/A   Clear
2:55 AM 34.5 °F 27.9 °F 30.2 °F 84% 30.20 in 10.0 mi North 8.1 mph - N/A   Clear
3:55 AM 34.5 °F - 29.1 °F 81% 30.20 in 10.0 mi Calm Calm - N/A   Clear
4:55 AM 32.9 °F 26.7 °F 28.0 °F 82% 30.19 in 10.0 mi NNE 6.9 mph - N/A   Clear
5:55 AM 32.7 °F 24.5 °F 27.5 °F 81% 30.19 in 10.0 mi North 10.4 mph - N/A   Clear
6:55 AM 35.1 °F 26.9 °F 27.3 °F 73% 30.19 in 10.0 mi North 11.5 mph - N/A   Clear
7:55 AM 37.0 °F 29.3 °F 28.2 °F 70% 30.20 in 10.0 mi North 11.5 mph - N/A   Clear
8:55 AM 41.9 °F 36.9 °F 31.5 °F 66% 30.21 in 10.0 mi North 8.1 mph - N/A   Clear
9:55 AM 46.4 °F 44.3 °F 31.8 °F 57% 30.21 in 10.0 mi NNE 4.6 mph - N/A   Clear
10:55 AM 52.0 °F - 34.7 °F 52% 30.20 in 10.0 mi NNE 3.5 mph - N/A   Clear
11:55 AM 58.1 °F - 37.0 °F 45% 30.18 in 10.0 mi SSE 5.8 mph - N/A   Clear
12:55 PM 59.7 °F - 37.6 °F 44% 30.14 in 10.0 mi Variable 3.5 mph - N/A   Clear
1:55 PM 63.1 °F - 37.4 °F 39% 30.12 in 10.0 mi Variable 4.6 mph - N/A   Clear
2:55 PM 64.9 °F - 36.9 °F 35% 30.08 in 10.0 mi SW 8.1 mph - N/A   Clear
3:55 PM 64.8 °F - 37.4 °F 36% 30.08 in 10.0 mi South 6.9 mph - N/A   Clear
4:55 PM 64.0 °F - 36.3 °F 36% 30.08 in 10.0 mi SW 3.5 mph - N/A   Clear
5:55 PM 60.3 °F - 35.6 °F 40% 30.08 in 10.0 mi Calm Calm - N/A   Clear
6:55 PM 54.0 °F - 35.6 °F 50% 30.11 in 10.0 mi Calm Calm - N/A   Clear
7:55 PM 46.2 °F 42.2 °F 35.1 °F 65% 30.14 in 10.0 mi NNE 8.1 mph - N/A   Clear
8:55 PM 46.2 °F 42.2 °F 33.6 °F 61% 30.14 in 10.0 mi North 8.1 mph - N/A   Clear
9:55 PM 44.2 °F 38.4 °F 34.3 °F 68% 30.16 in 10.0 mi NNE 11.5 mph - N/A   Clear
10:55 PM 43.3 °F 37.7 °F 33.8 °F 69% 30.19 in 10.0 mi North 10.4 mph - N/A   Clear
11:55 PM 43.7 °F 36.6 °F 30.7 °F 60% 30.20 in 10.0 mi NNE 15.0 mph - N/A   Clear